User: anonymous
Location: Caltech
(34.1382°N, 118.1253°W)
Time: 14:14:30
(UTC-07:00)
Language:

SEDSat Delta rocket - Orbit

View from above orbital plane
View from above orbital plane
View from above satellite
View from above satellite

Ground track
Ground track

The orbit data is extracted from the following two-line orbital elements,

1 25510U 98061C   14293.41891661  .00001020  00000-0  17213-3 0  9879
2 25510 031.4351 304.7023 0332632 117.4581 356.8587 14.35927417837594
Epoch (UTC): 20 October 2014 10:03:14
Eccentricity: 0.0332632
inclination: 31.4351°
perigee height: 534 km
apogee height: 1010 km
right ascension of ascending node: 304.7023°
argument of perigee: 117.4581°
revolutions per day: 14.35927417
mean anomaly at epoch: 356.8587°
orbit number at epoch: 83759

The dashed part of the orbit path shows where the satellite is in the earth's shadow,  

DLR